カタログに戻る

COSMOS 2111

GLONASS

運用中ナビゲーションMEO
NORAD 21008·PAYLOAD·🇷🇺 Russia

打ち上げ Dec 8, 1990 から Baikonur Cosmodrome

Loading…

次のパス (今後24時間)

TLE

最新Source: Space-Track

元期: Sep 8, 2026, 09:12 UTC

1 21008U 90110C   26251.38395962  .00000032  00000-0  00000-0 0  9998
2 21008  64.9776  68.3710 0017774 237.0935 135.5034  2.13098520278178

AllMySatでCOSMOS 2111をリアルタイム追跡

Download on the App Store